Regional Weather Roundup
Issued by NWS

Home | Current Version | Previous Version | Graphics & Text | Print | Product List | Glossary On
Versions: 1 2 3 4 5 6 7 8 9 10 11 12 13 14 15 16 17 18 19 20 21 22 23 24 25 26 27 28 29 30 31 32 33 34 35 36 37 38 39 40 41 42 43 44 45 46 47 48 49 50
000
ASUS43 KOAX 261102
RWRNE

WEATHER ROUNDUP FOR NEBRASKA
NATIONAL WEATHER SERVICE OMAHA NE
600 AM CDT FRI AUG 26 2016

NOTES: SATELLITE DATA IS BEING USED TO AUGMENT CLOUD COVER ABOVE
       12000 FEET.
       "FAIR" INDICATES FEW OR NO CLOUDS BELOW 12,000 FEET WITH NO
       SIGNIFICANT WEATHER AND/OR OBSTRUCTIONS TO VISIBILITY.

  * THESE STATIONS DO NOT REPORT WEATHER SUCH AS RAIN...SNOW OR FOG.

NEZ001>004-019>022-054>056-261200-
NEBRASKA PANHANDLE

CITY           SKY/WX    TMP DP  RH WIND       PRES   REMARKS
SCOTTSBLUFF    CLOUDY    56  50  80 E6        30.13F
ALLIANCE       CLOUDY    53  49  86 SE8       30.14F
CHADRON        CLOUDY    57  48  72 CALM      30.13F
SIDNEY         FAIR      56  51  84 S9        30.17F
$$

NEZ057>060-069>072-079>082-261200-
SOUTHWEST NEBRASKA

CITY           SKY/WX    TMP DP  RH WIND       PRES   REMARKS
NORTH PLATTE   FAIR      51  49  92 E5        30.17F
IMPERIAL       CLOUDY    54  51  90 SE5       30.18F
LEXINGTON      FAIR      53  52  95 CALM      30.18R
MCCOOK         CLOUDY    56  53  90 CALM      30.18R
OGALLALA       FAIR      56  51  84 CALM      30.18S
$$

NEZ005>010-023>029-035>040-094-261200-
NORTH CENTRAL NEBRASKA

CITY           SKY/WX    TMP DP  RH WIND       PRES   REMARKS
VALENTINE      FAIR      46  43  89 W5        30.19S
AINSWORTH      FAIR      50  48  94 CALM      30.19R
BROKEN BOW     FAIR      48  48 100 CALM      30.18R
O`NEILL        FAIR      52  50  91 CALM      30.18S
ORD            FAIR      51  49  92 NW6       30.17R
THEDFORD       FAIR      48  47  95 CALM      30.19S
$$

NEZ041-046>049-061>064-073>077-083>087-261200-
SOUTH CENTRAL NEBRASKA

CITY           SKY/WX    TMP DP  RH WIND       PRES   REMARKS
GRAND ISLAND   FAIR      56  54  93 CALM      30.18R
AURORA         FAIR      55  55 100 N3        30.18R
HASTINGS       CLOUDY    58  54  86 CALM      30.18R
HEBRON         CLOUDY    60  58  92 CALM      30.15R
HOLDREGE       CLOUDY    58  56  95 CALM      30.17R FOG
KEARNEY *      FAIR      55  52  88 E5        30.17S
YORK           CLOUDY    57  55  94 CALM      30.17R
$$

NEZ011>018-030>034-042>045-261200-
NORTHEAST NEBRASKA

CITY           SKY/WX    TMP DP  RH WIND       PRES   REMARKS
NORFOLK        FAIR      54  52  93 CALM      30.17S
ALBION         FAIR      52  50  93 CALM      30.18R
BLAIR          FAIR      60  58  90 NE7       30.16R
FREMONT        FAIR      56  55  99 CALM      30.16S
TEKAMAH        FAIR      55  53  93 N7        30.15F
WAYNE          FAIR      52  51  98 S3        30.17S
$$

NEZ050>053-065>068-078-088>093-261200-
SOUTHEAST NEBRASKA

CITY           SKY/WX    TMP DP  RH WIND       PRES   REMARKS
LINCOLN        FAIR      59  57  93 N6        30.16R
OMAHA EPPLEY   MOCLDY    59  56  89 NW3       30.16R
BEATRICE       FAIR      60  59  96 NE5       30.14R
FALLS CITY     CLOUDY    65  63  93 E3        30.13R
NEBRASKA CITY  FAIR      60  60 100 N5        30.15R
PLATTSMOUTH    FAIR      61  59  92 NE3       30.15S
$$

NEZ044-045-051>053-067-261200-
OMAHA AREA

CITY           SKY/WX    TMP DP  RH WIND       PRES   REMARKS
OMAHA EPPLEY   MOCLDY    59  56  89 NW3       30.16R
BLAIR          FAIR      60  58  90 NE7       30.16R
FREMONT        FAIR      56  55  99 CALM      30.16S
MILLARD        FAIR      60  58  94 CALM      30.16R
OFFUTT AFB     FAIR      61  59  94 NE5       30.15R
PLATTSMOUTH    FAIR      61  59  92 NE3       30.15S
WAHOO          FAIR      57  56  95 N5        30.16R
$$




USA.gov is the U.S. government's official web portal to all federal, state and local government web resources and services.